Regional Weather Roundup
Issued by NWS Cleveland, OH

Home | Current Version | Previous Version | Graphics & Text | Print | Product List | Glossary On
Versions: 1 2 3 4 5 6 7 8 9 10 11 12 13 14 15 16 17 18 19 20 21 22 23 24 25 26 27 28 29 30 31 32 33 34 35 36 37 38 39 40 41 42 43 44 45 46 47 48 49 50
000
ASUS41 KCLE 011202
RWRCLE
OHIO REGIONAL WEATHER ROUNDUP
NATIONAL WEATHER SERVICE CLEVELAND, OH
800 AM EDT MON SEP 01 2014

NOTE: "FAIR" INDICATES FEW OR NO CLOUDS BELOW 12,000 FEET WITH NO
SIGNIFICANT WEATHER AND/OR OBSTRUCTIONS TO VISIBILITY.

OHZ001>008-015>018-024>027-034-035-043-044-011300-
   NORTHWEST OHIO

CITY           SKY/WX    TMP DP  RH WIND       PRES   REMARKS
DEFIANCE       MOCLDY    71  68  90 S7        29.93S
FINDLAY        PTSUNNY   70  68  93 S12       29.96R FOG
TOLEDO EXPRESS MOSUNNY   69  68  96 S5        29.93S FOG
TOLEDO EXEC    PTSUNNY   71  68  90 S9        29.95R
LIMA           CLOUDY    71  68  90 S10       29.98R FOG
$$

OHZ009>014-019>023-028>033-038-089-011300-
   NORTHEAST OHIO

CITY           SKY/WX    TMP DP  RH WIND       PRES   REMARKS
CLE-HOPKINS    CLOUDY    71  68  90 S8        30.00S
CLE-LAKEFRONT  CLOUDY    73  68  84 S9        29.96F
CUY CO. ARPT   PTSUNNY   73  72  94 SW12      29.99S
LORAIN-ELYRIA  PTSUNNY   73  68  84 S7        29.99S
ASHTABULA      CLOUDY    72  69  90 S7        30.00S
AKRON-CANTON   CLOUDY    71  67  87 SW7       30.02S
WOOSTER        CLOUDY    70  67  90 S7        30.02S
MANSFIELD      CLOUDY    70  69  97 S7        30.02S
YOUNGSTOWN     CLOUDY    70  68  93 S5        30.02S
$$

OHZ042-051>053-060>062-070>072-077>081-011300-
  SOUTHWEST OHIO

CITY           SKY/WX    TMP DP  RH WIND       PRES   REMARKS
CINC-COVINGTON CLOUDY    74  71  91 S7        30.01S
CINC-LUNKEN    CLOUDY    75  72  90 SW7       30.01S
HAMILTON       CLOUDY    75  72  90 CALM      30.00S
DAYTON         CLOUDY    73  70  90 S6        30.01R FOG
WRIGHT-PAT AFB CLOUDY    73  72  97 S5        30.00S
DAYTON GENERAL CLOUDY    73  71  93 S6        30.00S
WILMINGTON     CLOUDY    72  70  93 S7        30.02S FOG
$$

OHZ036-037-039>041-045>050-054>059-063>069-073>076-082>088-011300-
  CENTRAL AND SOUTHEAST OHIO

CITY           SKY/WX    TMP DP  RH WIND       PRES   REMARKS
COLUMBUS       CLOUDY    73  69  87 S5        30.01R
OSU AIRPORT    CLOUDY    71  69  93 S5        30.00S FOG
BOLTON FIELD   CLOUDY    72  72 100 CALM      30.01S FOG
RICKENBACK AFB CLOUDY    71  66  85 S5        30.01S HAZE
NEWARK         CLOUDY    71  68  90 S3        30.01F
MARION         CLOUDY    70  68  93 S7        30.00S FOG
LANCASTER      CLOUDY    72  69  90 S5        30.02S FOG
ZANESVILLE     CLOUDY    71  67  87 CALM      30.03R
NEW PHILLY     CLOUDY    71  69  93 CALM      30.03R
$$



USA.gov is the U.S. government's official web portal to all federal, state and local government web resources and services.